TimeMDT,TemperatureF,Dew PointF,Humidity,Sea Level PressureIn,VisibilityMPH,Wind Direction,Wind SpeedMPH,Gust SpeedMPH,PrecipitationIn,Events,Conditions,WindDirDegrees,DateUTC
12:15 AM,51.8,33.8,50,29.86,10.0,ESE,4.6,-,N/A,,Clear,120,2013-05-17 06:15:00
12:35 AM,48.2,35.6,62,29.86,10.0,ESE,3.5,-,N/A,,Clear,110,2013-05-17 06:35:00
12:55 AM,50.0,35.6,58,29.87,10.0,SSW,3.5,-,N/A,,Clear,210,2013-05-17 06:55:00
1:15 AM,46.4,35.6,66,29.87,10.0,SE,4.6,-,N/A,,Clear,130,2013-05-17 07:15:00
1:35 AM,46.4,35.6,66,29.87,10.0,ESE,4.6,-,N/A,,Clear,120,2013-05-17 07:35:00
1:55 AM,51.8,33.8,50,29.87,10.0,Calm,Calm,-,N/A,,Clear,0,2013-05-17 07:55:00
2:15 AM,48.2,35.6,62,29.87,10.0,Calm,Calm,-,N/A,,Clear,0,2013-05-17 08:15:00
2:35 AM,46.4,35.6,66,29.87,10.0,SSE,4.6,-,N/A,,Clear,160,2013-05-17 08:35:00
2:55 AM,44.6,35.6,71,29.87,10.0,SE,5.8,-,N/A,,Clear,130,2013-05-17 08:55:00
3:15 AM,46.4,35.6,66,29.88,10.0,WSW,3.5,-,N/A,,Clear,240,2013-05-17 09:15:00
3:35 AM,44.6,35.6,71,29.87,10.0,East,3.5,-,N/A,,Clear,90,2013-05-17 09:35:00
3:55 AM,44.6,35.6,71,29.88,10.0,Calm,Calm,-,N/A,,Clear,0,2013-05-17 09:55:00
4:15 AM,44.6,37.4,76,29.88,10.0,SE,5.8,-,N/A,,Clear,140,2013-05-17 10:15:00
4:35 AM,46.4,35.6,66,29.87,10.0,Calm,Calm,-,N/A,,Clear,0,2013-05-17 10:35:00
4:55 AM,48.2,35.6,62,29.87,10.0,Calm,Calm,-,N/A,,Clear,0,2013-05-17 10:55:00
5:15 AM,46.4,37.4,71,29.88,10.0,Calm,Calm,-,N/A,,Clear,0,2013-05-17 11:15:00
5:35 AM,48.2,35.6,62,29.88,10.0,Calm,Calm,-,N/A,,Clear,0,2013-05-17 11:35:00
6:15 AM,44.6,37.4,76,29.89,10.0,Calm,Calm,-,N/A,,Clear,0,2013-05-17 12:15:00
6:35 AM,44.6,37.4,76,29.89,10.0,Calm,Calm,-,N/A,,Clear,0,2013-05-17 12:35:00
6:55 AM,44.6,39.2,81,29.89,10.0,Calm,Calm,-,N/A,,Clear,0,2013-05-17 12:55:00
7:15 AM,46.4,41.0,81,29.90,10.0,Calm,Calm,-,N/A,,Clear,0,2013-05-17 13:15:00
7:35 AM,48.2,41.0,76,29.90,10.0,Calm,Calm,-,N/A,,Clear,0,2013-05-17 13:35:00
7:55 AM,50.0,42.8,76,29.91,10.0,Calm,Calm,-,N/A,,Clear,0,2013-05-17 13:55:00
8:15 AM,50.0,39.2,66,29.91,10.0,Calm,Calm,-,N/A,,Clear,0,2013-05-17 14:15:00
8:35 AM,51.8,41.0,67,29.91,10.0,Calm,Calm,-,N/A,,Clear,0,2013-05-17 14:35:00
8:55 AM,51.8,42.8,71,29.91,10.0,Calm,Calm,-,N/A,,Clear,0,2013-05-17 14:55:00
9:15 AM,51.8,39.2,62,29.91,10.0,Calm,Calm,-,N/A,,Clear,0,2013-05-17 15:15:00
9:35 AM,51.8,39.2,62,29.91,10.0,Calm,Calm,-,N/A,,Scattered Clouds,0,2013-05-17 15:35:00
9:55 AM,53.6,41.0,62,29.91,10.0,Calm,Calm,-,N/A,,Scattered Clouds,0,2013-05-17 15:55:00
10:15 AM,55.4,41.0,58,29.91,10.0,Calm,Calm,-,N/A,,Clear,0,2013-05-17 16:15:00
10:35 AM,55.4,41.0,58,29.92,10.0,Calm,Calm,-,N/A,,Clear,0,2013-05-17 16:35:00
10:55 AM,57.2,41.0,55,29.91,10.0,NNE,4.6,-,N/A,,Clear,20,2013-05-17 16:55:00
11:15 AM,57.2,41.0,55,29.92,10.0,Calm,Calm,-,N/A,,Scattered Clouds,0,2013-05-17 17:15:00
11:35 AM,59.0,41.0,51,29.91,10.0,Calm,Calm,-,N/A,,Mostly Cloudy,0,2013-05-17 17:35:00
11:55 AM,59.0,41.0,51,29.91,10.0,Calm,Calm,-,N/A,,Mostly Cloudy,0,2013-05-17 17:55:00
12:15 PM,60.8,39.2,45,29.91,10.0,West,4.6,-,N/A,,Mostly Cloudy,270,2013-05-17 18:15:00
12:35 PM,64.4,35.6,34,29.90,10.0,WSW,15.0,23.0,N/A,,Mostly Cloudy,240,2013-05-17 18:35:00
12:55 PM,64.4,32.0,30,29.90,10.0,SW,25.3,33.4,N/A,,Scattered Clouds,230,2013-05-17 18:55:00
1:15 PM,62.6,33.8,34,29.90,10.0,SW,21.9,32.2,N/A,,Scattered Clouds,230,2013-05-17 19:15:00
1:35 PM,62.6,33.8,34,29.91,10.0,SW,19.6,29.9,N/A,,Mostly Cloudy,230,2013-05-17 19:35:00
1:55 PM,62.6,35.6,37,29.91,10.0,SW,21.9,31.1,N/A,,Scattered Clouds,230,2013-05-17 19:55:00
2:15 PM,62.6,35.6,37,29.91,10.0,SW,23.0,31.1,N/A,,Clear,230,2013-05-17 20:15:00
2:35 PM,59.0,37.4,45,29.92,10.0,SW,26.5,39.1,N/A,,Scattered Clouds,230,2013-05-17 20:35:00
2:55 PM,59.0,37.4,45,29.93,10.0,SW,18.4,27.6,N/A,,Overcast,230,2013-05-17 20:55:00
3:15 PM,59.0,37.4,45,29.94,10.0,SW,24.2,32.2,N/A,,Overcast,230,2013-05-17 21:15:00
3:35 PM,57.2,39.2,51,29.95,10.0,WSW,18.4,31.1,N/A,,Mostly Cloudy,240,2013-05-17 21:35:00
3:55 PM,57.2,37.4,48,29.95,10.0,SW,17.3,26.5,N/A,,Scattered Clouds,230,2013-05-17 21:55:00
4:15 PM,57.2,39.2,51,29.94,10.0,SW,10.4,24.2,N/A,,Mostly Cloudy,220,2013-05-17 22:15:00
4:35 PM,59.0,37.4,45,29.94,10.0,SW,10.4,-,N/A,Thunderstorm,Scattered Clouds,220,2013-05-17 22:35:00
4:55 PM,59.0,37.4,45,29.94,10.0,SW,18.4,-,N/A,,Scattered Clouds,230,2013-05-17 22:55:00
5:15 PM,59.0,35.6,42,29.94,10.0,South,15.0,-,N/A,,Overcast,170,2013-05-17 23:15:00
5:35 PM,59.0,37.4,45,29.94,10.0,SSE,8.1,-,N/A,,Mostly Cloudy,150,2013-05-17 23:35:00
5:55 PM,59.0,37.4,45,29.95,10.0,ESE,5.8,-,N/A,Thunderstorm,Overcast,120,2013-05-17 23:55:00
6:15 PM,59.0,35.6,42,29.94,10.0,Calm,Calm,-,N/A,,Overcast,0,2013-05-18 00:15:00
6:35 PM,57.2,37.4,48,29.94,10.0,West,5.8,-,N/A,,Mostly Cloudy,270,2013-05-18 00:35:00
6:55 PM,55.4,37.4,51,29.94,10.0,South,6.9,-,N/A,,Overcast,190,2013-05-18 00:55:00
7:15 PM,55.4,37.4,51,29.93,10.0,Calm,Calm,-,N/A,,Overcast,0,2013-05-18 01:15:00
7:35 PM,55.4,35.6,47,29.92,10.0,Calm,Calm,-,N/A,,Mostly Cloudy,0,2013-05-18 01:35:00
7:55 PM,55.4,39.2,54,29.92,10.0,Calm,Calm,-,N/A,,Overcast,0,2013-05-18 01:55:00
8:15 PM,53.6,41.0,62,29.92,7.0,Calm,Calm,-,N/A,,Overcast,0,2013-05-18 02:15:00
8:35 PM,53.6,41.0,62,29.93,10.0,Calm,Calm,-,N/A,,Overcast,0,2013-05-18 02:35:00
8:55 PM,53.6,41.0,62,29.94,10.0,Calm,Calm,-,N/A,,Overcast,0,2013-05-18 02:55:00
9:15 PM,51.8,41.0,67,29.94,10.0,SW,4.6,-,N/A,,Mostly Cloudy,230,2013-05-18 03:15:00
9:35 PM,51.8,39.2,62,29.95,10.0,Calm,Calm,-,N/A,,Mostly Cloudy,0,2013-05-18 03:35:00
9:55 PM,53.6,37.4,54,29.95,10.0,Calm,Calm,-,N/A,Thunderstorm,Overcast,0,2013-05-18 03:55:00
10:15 PM,51.8,41.0,67,29.96,10.0,SSW,17.3,27.6,N/A,,Overcast,210,2013-05-18 04:15:00
10:35 PM,50.0,42.8,76,29.97,10.0,SW,9.2,-,N/A,,Mostly Cloudy,230,2013-05-18 04:35:00
10:55 PM,51.8,42.8,71,29.98,10.0,SW,8.1,-,N/A,,Light Drizzle,230,2013-05-18 04:55:00
11:15 PM,50.0,42.8,76,29.99,10.0,SW,13.8,-,N/A,,Light Drizzle,230,2013-05-18 05:15:00
11:35 PM,50.0,41.0,71,29.99,10.0,SW,9.2,-,N/A,,Overcast,230,2013-05-18 05:35:00
11:55 PM,48.2,42.8,82,30.00,5.0,SW,16.1,19.6,N/A,Rain,Rain,230,2013-05-18 05:55:00